EW3732 Weather Reports


Display with metric or nautical units.
time (UTC)temp
F
wind
direction
speed
MPH
gust
MPH
rain 1hr
in
rain 24hr
in
rain mn
in
humidity
%
barometer
mb
20180524000400 62 251 8.0 16.0 0.01 0.02 0.02 73 1006.4
20180523234857 62 261 3.0 9.0 0.01 0.02 0.02 77 1006.4
20180523233357 62 291 3.0 14.0 0.01 0.01 0.01 76 1006.6
20180523231858 63 243 2.0 10.0 0.01 0.01 0.01 74 1006.4
20180523230357 63 254 3.0 14.0 0.01 0.01 0.01 72 1006.3
20180523224854 63 297 1.0 12.0 0.01 0.01 0.01 73 1005.6
20180523223354 65 331 0.0 4.0 0.00 0.00 0.00 72 1005.3
20180523221854 68 51 2.0 11.0 0.00 0.00 0.00 65 1005.0
20180523220353 71 313 2.0 6.0 0.00 0.00 0.00 57 1004.6
20180523214852 74 286 4.0 12.0 0.00 0.00 0.00 46 1004.2
20180523213353 80 257 2.0 10.0 0.00 0.00 0.00 35 1003.6
20180523211851 81 242 0.0 8.0 0.00 0.00 0.00 34 1003.4
20180523210351 82 115 0.0 4.0 0.00 0.00 0.00 27 1003.4
20180523203347 83 38 0.0 6.0 0.00 0.00 0.00 29 1003.5
20180523201846 83 62 1.0 8.0 0.00 0.00 0.00 32 1003.7
20180523200347 84 154 3.0 12.0 0.00 0.00 0.00 29 1003.7
20180523194843 83 143 1.0 4.0 0.00 0.00 0.00 30 1003.9
20180523193303 82 311 0.0 7.0 0.00 0.00 0.00 31 1004.2
20180523191839 82 82 3.0 10.0 0.00 0.00 0.00 30 1004.3
20180523184912 80 337 2.0 11.0 0.00 0.00 0.00 33 1004.4
20180523183327 80 285 0.0 4.0 0.00 0.00 0.00 35 1004.7
20180523181826 79 355 2.0 7.0 0.00 0.00 0.00 41 1004.9
20180523180319 77 272 1.0 4.0 0.00 0.00 0.00 45 1005.0
20180523174815 75 9 2.0 4.0 0.00 0.00 0.00 50 1005.2
20180523173312 74 355 2.0 5.0 0.00 0.00 0.00 53 1005.3
20180523171810 72 11 1.0 5.0 0.00 0.00 0.00 54 1005.6
20180523170243 72 335 2.0 5.0 0.00 0.00 0.00 54 1005.8
20180523164733 69 276 1.0 4.0 0.00 0.00 0.00 59 1006.0
20180523163229 68 355 2.0 5.0 0.00 0.00 0.00 62 1006.1
20180523161724 66 10 1.0 6.0 0.00 0.00 0.00 62 1006.3
20180523160220 65 348 1.0 6.0 0.00 0.00 0.00 66 1006.5
20180523154717 64 286 1.0 4.0 0.00 0.00 0.00 67 1006.6
20180523153216 62 288 0.0 4.0 0.00 0.00 0.00 70 1006.8
20180523151712 61 285 0.0 4.0 0.00 0.00 0.00 73 1006.8
20180523150210 60 265 1.0 3.0 0.00 0.00 0.00 75 1006.9
20180523144707 58 307 2.0 4.0 0.00 0.00 0.00 78 1007.1
20180523143204 57 22 0.0 3.0 0.00 0.00 0.00 79 1007.3
20180523141702 56 248 1.0 3.0 0.00 0.00 0.00 83 1007.5
20180523140206 54 355 3.0 5.0 0.00 0.00 0.00 85 1007.5
20180523134704 52 292 0.0 0.0 0.00 0.00 0.00 89 1007.5
20180523133204 51 292 0.0 0.0 0.00 0.00 0.00 91 1007.5
20180523131701 50 245 0.0 0.0 0.00 0.00 0.00 92 1007.4
20180523130157 49 245 0.0 0.0 0.00 0.00 0.00 91 1007.5
20180523124655 49 245 0.0 0.0 0.00 0.00 0.00 92 1007.5
20180523123153 49 336 0.0 0.0 0.00 0.00 0.00 90 1007.6
20180523121656 50 336 0.0 0.0 0.00 0.00 0.00 89 1007.6
20180523120152 51 336 0.0 0.0 0.00 0.00 0.00 88 1007.5
20180523114646 51 336 0.0 0.0 0.00 0.00 0.00 89 1007.6
20180523113147 52 336 0.0 0.0 0.00 0.00 0.00 88 1007.5
20180523111642 51 285 0.0 0.0 0.00 0.00 0.00 89 1007.6
20180523110143 52 285 0.0 0.0 0.00 0.00 0.00 88 1007.7
20180523104639 52 285 0.0 0.0 0.00 0.00 0.00 87 1007.8
20180523103135 53 285 0.0 0.0 0.00 0.00 0.00 86 1007.6
20180523101638 53 285 0.0 0.0 0.00 0.00 0.00 85 1007.6
20180523100134 54 269 0.0 0.0 0.00 0.00 0.00 85 1007.6
20180523094630 54 269 0.0 0.0 0.00 0.00 0.00 85 1007.7
20180523093128 54 269 0.0 0.0 0.00 0.00 0.00 84 1007.6
20180523091625 55 219 0.0 0.0 0.00 0.00 0.00 82 1007.9
20180523090124 55 217 0.0 0.0 0.00 0.00 0.00 83 1007.9
20180523084623 55 210 0.0 0.0 0.00 0.00 0.00 82 1007.9
20180523083122 55 209 0.0 0.0 0.00 0.00 0.00 82 1008.0
20180523081620 56 209 0.0 0.0 0.00 0.00 0.00 80 1008.0
20180523080116 57 209 0.0 0.0 0.00 0.00 0.00 79 1008.0
20180523074612 58 315 0.0 2.0 0.00 0.00 0.00 77 1008.0
20180523073110 59 291 1.0 4.0 0.00 0.00 0.00 75 1007.9
20180523071608 60 316 0.0 0.0 0.00 0.00 0.00 74 1007.9
20180523070105 60 337 0.0 2.0 0.00 0.00 0.00 73 1008.0
20180523064604 61 281 0.0 6.0 0.00 0.00 0.00 72 1008.2
20180523063107 62 12 2.0 5.0 0.00 0.00 0.00 70 1008.1
20180523061606 62 360 5.0 9.0 0.00 0.00 0.00 69 1008.2
20180523060107 63 355 2.0 6.0 0.00 0.00 0.00 68 1008.2
20180523054605 64 294 1.0 7.0 0.00 0.00 0.00 66 1008.3
20180523053105 65 329 0.0 5.0 0.00 0.00 0.00 66 1008.3
20180523051606 65 5 0.0 0.0 0.00 0.00 0.00 66 1008.3
20180523050104 66 342 0.0 3.0 0.00 0.00 0.00 64 1008.3
20180523044602 67 325 0.0 6.0 0.00 0.00 0.00 62 1008.3
20180523043101 68 306 2.0 6.0 0.00 0.00 0.00 60 1008.2
20180523041602 69 348 1.0 10.0 0.00 0.00 0.00 59 1008.1
20180523040100 69 272 3.0 8.0 0.00 0.00 0.00 57 1007.9
20180523034558 70 327 2.0 5.0 0.00 0.00 0.00 56 1007.7
20180523033103 71 198 0.0 6.0 0.00 0.00 0.00 54 1007.6
20180523031557 72 253 1.0 9.0 0.00 0.00 0.00 52 1007.6
20180523030055 73 334 1.0 9.0 0.00 0.00 0.00 50 1007.4
20180523024559 75 280 1.0 9.0 0.00 0.00 0.00 48 1007.3
20180523023054 76 321 0.0 11.0 0.00 0.00 0.00 46 1007.2
20180523021555 77 244 0.0 8.0 0.00 0.00 0.00 44 1007.2
20180523020054 78 300 3.0 10.0 0.00 0.00 0.00 43 1007.2
20180523014550 79 20 2.0 10.0 0.00 0.00 0.00 41 1007.1
20180523013051 81 342 4.0 12.0 0.00 0.00 0.00 37 1007.0
20180523011547 83 294 1.0 6.0 0.00 0.00 0.00 35 1007.1
20180523010044 84 186 0.0 4.0 0.00 0.00 0.00 27 1007.0
20180523004543 84 204 0.0 0.0 0.00 0.00 0.00 26 1007.1
20180523003042 84 154 0.0 4.0 0.00 0.00 0.00 25 1007.0
20180523001538 84 94 0.0 4.0 0.00 0.00 0.00 25 1007.2